This is the latest recevied weather packets stored in our database for station/object N8QQQ. If no packets are shown the sender has not sent any weather packets the latest 10 day(s).
| Time | Temp. | Humidity | Pressure | Rain* | Wind** | Luminosity | Snow |
|---|---|---|---|---|---|---|---|
| 1777939687 | 10.56° C | 45% | 996.3 hPa | 0 mm | - | 32 W/m² | - |
| 1777939384 | 11.11° C | 46% | 996 hPa | 0 mm | - | 35 W/m² | - |
| 1777939081 | 11.11° C | 46% | 996.1 hPa | 0 mm | - | 42 W/m² | - |
| 1777938777 | 11.11° C | 46% | 995.8 hPa | 0 mm | - | 41 W/m² | - |
| 1777938474 | 11.67° C | 45% | 996 hPa | 0 mm | - | 61 W/m² | - |
| 1777938172 | 11.67° C | 44% | 995.6 hPa | 0 mm | - | 67 W/m² | - |
| 1777937868 | 11.67° C | 46% | 995.7 hPa | 0 mm | - | 55 W/m² | - |
| 1777937564 | 11.67° C | 45% | 995.6 hPa | 0 mm | - | 72 W/m² | - |
| 1777937261 | 12.22° C | 44% | 995.4 hPa | 0 mm | - | 63 W/m² | - |
| 1777936958 | 12.22° C | 44% | 995.4 hPa | 0 mm | - | 111 W/m² | - |
| 1777936655 | 12.78° C | 44% | 995.2 hPa | 0 mm | - | 103 W/m² | - |
| 1777936351 | 12.78° C | 44% | 995.3 hPa | 0 mm | - | 121 W/m² | - |
| 1777936047 | 12.78° C | 44% | 995.2 hPa | 0 mm | - | 122 W/m² | - |
| 1777935746 | 12.78° C | 44% | 995.2 hPa | 0 mm | - | 143 W/m² | - |
| 1777935444 | 13.33° C | 45% | 995.2 hPa | 0 mm | - | 159 W/m² | - |
| 1777935140 | 13.89° C | 44% | 994.8 hPa | 0 mm | - | 156 W/m² | - |
| 1777934837 | 13.89° C | 44% | 994.7 hPa | 0 mm | - | 185 W/m² | - |
| 1777934535 | 13.89° C | 44% | 994.6 hPa | 0 mm | - | 182 W/m² | - |
| 1777934231 | 13.89° C | 44% | 994.8 hPa | 0 mm | - | 179 W/m² | - |
| 1777933926 | 13.89° C | 43% | 994.7 hPa | 0 mm | - | 156 W/m² | - |
| 1777933624 | 14.44° C | 43% | 994.4 hPa | 0 mm | - | 196 W/m² | - |
| 1777933320 | 15° C | 42% | 994.4 hPa | 0 mm | - | 238 W/m² | - |
| 1777933018 | 13.89° C | 45% | 994.4 hPa | 0 mm | - | 249 W/m² | - |
| 1777932715 | 14.44° C | 44% | 994.1 hPa | 0 mm | - | 182 W/m² | - |
| 1777932411 | 15° C | 44% | 994.1 hPa | 0 mm | - | 103 W/m² | - |
* Rain latest hour (hover to see other rain measurements)
** Current wind speed in m/s (hover to see current wind gust speed)